Tracking 19817 objects as of 18-Aug-2019
HD Live streaming from Space Station
objects crossing your sky now

COSMOS 2251 DEB

Track COSMOS 2251 DEB now!
10-day predictions


NORAD ID: 34331
Int'l Code: 1993-036PD
Perigee: 698.3 km
Apogee: 767.8 km
Inclination: 74.0 °
Period: 99.3 minutes
Semi major axis: 7104 km
RCS: 0.0304 m2 (small)
Launch date: June 16, 1993
Source: Commonwealth of Independent States (former USSR) (CIS)
Launch site: PLESETSK MISSILE AND SPACE COMPLEX (PKMTR)

Note: This is SATELLITE DEBRIS
aabbcc
Your satellite tracking list
Your tracking list is empty




NASA's NSSDC Master Catalog

Two Line Element Set (TLE):
1 34331U 93036PD  19228.88283325 +.00000543 +00000-0 +14589-3 0  9998
2 34331 074.0309 135.6575 0048923 297.2499 062.3681 14.49912490551380
Source of the keplerian elements: AFSPC